"Pseudo-MPEC" for C14YZX5

Created 2025 Jul 7 22:35:05 UT using Find_Orb

Click here for an explanation of pseudo-MPECs

 
 Astrometry: 
     C14YZX5* C2025 07 06.41717522 57 25.319-08 03 43.52   ~76B5 22.17GVNEOCPV00
     C14YZX5  C2025 07 06.42278722 57 26.089-08 03 52.13   ~76B5 22.31GVNEOCPV00
     C14YZX5  C2025 07 06.42837422 57 26.874-08 04 00.80   ~76B5 22.28GVNEOCPV00
     C14YZX5  C2025 07 06.43396222 57 27.623-08 04 09.48   ~76B5 21.78GVNEOCPV00
     C14YZX5  C2025 07 06.46400622 57 31.716-08 04 55.88   ~76Co 21.72GVNEOCPV00
     C14YZX5  C2025 07 06.46497522 57 31.864-08 04 57.25   ~76Co 21.73GVNEOCPV00
     C14YZX5  C2025 07 06.46594322 57 31.993-08 04 58.76   ~76Co 21.92GVNEOCPV00
     C14YZX5  C2025 07 06.46691022 57 32.123-08 05 00.10   ~76Co 21.70GVNEOCPV00

Station data:
(V00) Kitt Peak-Bok  (N31.963125 W111.600190)  US/Arizona.  Observers T. A.
   Pruyne, B. M. Africano, E. J. Christensen, G. A. Farneth, D. C. Fuls, A.
   R. Gibbs, A. D. Grauer, H. Gröller, J. A. Johnson, R. A. Kowalski, S. M.
   Larson, G. J. Leonard, D. Rankin, R. L. Seaman, F. C. Shelly, K. W.
   Wierzchoś. 2.25-m reflector + 4x4K mosaic CCD.

Orbital elements:  C14YZX5
   Perihelion 2025 Aug 25.36911 +/- 42.3 TT =  8:51:30 (JD 2460912.86911)
Epoch 2025 Jul  6.0 TT = JDT 2460862.5   Earth MOID: 0.0614   Ve: 0.0767
M 325.75977653 +/- 48               Me: 0.0814   Ma: 0.0685      AutoNEOCP
n   0.67978621 +/- 0.601            Peri.  344.57755 +/- 80
a   1.28101578 +/- 0.755            Node   119.08286 +/- 25
e   0.9630760 +/- 0.267             Incl.   64.16484 +/- 50
P   1.450/529.568d         H 22.13  G  0.15   U 12.4  SR
q 0.04730014 +/- 0.524    Q 2.51473141 +/- 22.3           (J2000 ecliptic)
From 8 observations 2025 July 6 (71.6 min); mean residual 0".10
Residuals in arcseconds: 
250706 V00  .13-  .02+    250706 V00  .03+  .08-    250706 V00  .03+  .01-    
250706 V00  .08-  .05+    250706 V00  .15-  .12-    250706 V00  .01-  .14+    
250706 V00  .24+  .01-    250706 V00  .08+  .00     

Ephemerides (geocentric):
Date (UTC) HH   RA             Dec           delta  r     elong  mag " sig PA
---- --------  ------------   ------------  ------ ------ -----  --- --------
2025 07 07 23  23 01 26.175   -08 47 24.44  .34816 1.2392 122.6 22.0  26d  94
2025 07 08 00  23 01 33.287   -08 48 44.05  .34717 1.2386 122.6 22.0  27d  94
2025 07 08 01  23 01 40.434   -08 50 04.15  .34618 1.2380 122.6 22.0  29d  95
2025 07 08 02  23 01 47.616   -08 51 24.74  .34519 1.2373 122.6 22.0  29d  95
2025 07 08 03  23 01 54.833   -08 52 45.83  .34420 1.2367 122.6 22.0  29d  95
2025 07 08 04  23 02 02.085   -08 54 07.41  .34321 1.2361 122.7 22.0  30d  95
2025 07 08 05  23 02 09.374   -08 55 29.50  .34223 1.2354 122.7 22.0  30d  95
2025 07 08 06  23 02 16.698   -08 56 52.09  .34124 1.2348 122.7 21.9  30d  95
2025 07 08 07  23 02 24.059   -08 58 15.19  .34025 1.2342 122.7 21.9  30d  95
2025 07 08 08  23 02 31.458   -08 59 38.80  .33926 1.2335 122.7 21.9  30d  95
2025 07 08 09  23 02 38.893   -09 01 02.94  .33827 1.2329 122.8 21.9  30d  95
2025 07 08 10  23 02 46.366   -09 02 27.60  .33728 1.2323 122.8 21.9  30d  95
2025 07 08 11  23 02 53.876   -09 03 52.78  .33630 1.2316 122.8 21.9  30d  95
2025 07 08 12  23 03 01.425   -09 05 18.50  .33531 1.2310 122.8 21.9  30d  95
2025 07 08 13  23 03 09.013   -09 06 44.75  .33432 1.2304 122.8 21.9  31d  95
2025 07 08 14  23 03 16.640   -09 08 11.55  .33333 1.2297 122.9 21.9  31d  94
2025 07 08 15  23 03 24.306   -09 09 38.88  .33235 1.2291 122.9 21.9  32d  94
2025 07 08 16  23 03 32.011   -09 11 06.77  .33136 1.2285 122.9 21.9  33d  94
2025 07 08 17  23 03 39.757   -09 12 35.22  .33037 1.2278 122.9 21.9  34d  94
2025 07 08 18  23 03 47.543   -09 14 04.22  .32939 1.2272 122.9 21.9  35d  94
2025 07 08 19  23 03 55.370   -09 15 33.78  .32840 1.2265 122.9 21.9  36d  94
2025 07 08 20  23 04 03.238   -09 17 03.91  .32741 1.2259 123.0 21.8  37d  94
2025 07 08 21  23 04 11.148   -09 18 34.62  .32643 1.2253 123.0 21.8  37d  94
2025 07 08 22  23 04 19.100   -09 20 05.90  .32544 1.2246 123.0 21.8  37d  94
2025 07 08 23  23 04 27.095   -09 21 37.77  .32446 1.2240 123.0 21.8  38d  95
2025 07 09 00  23 04 35.132   -09 23 10.23  .32347 1.2234 123.0 21.8  38d  95
2025 07 09 01  23 04 43.212   -09 24 43.27  .32248 1.2227 123.1 21.8  38d  95
2025 07 09 02  23 04 51.336   -09 26 16.92  .32150 1.2221 123.1 21.8  38d  95
2025 07 09 03  23 04 59.504   -09 27 51.17  .32051 1.2214 123.1 21.8  38d  95
2025 07 09 04  23 05 07.717   -09 29 26.03  .31953 1.2208 123.1 21.8  38d  95
2025 07 09 05  23 05 15.974   -09 31 01.50  .31855 1.2202 123.1 21.8  39d  95
2025 07 09 06  23 05 24.277   -09 32 37.59  .31756 1.2195 123.1 21.8  39d  94
2025 07 09 07  23 05 32.626   -09 34 14.30  .31658 1.2189 123.2 21.8  39d  94
2025 07 09 08  23 05 41.021   -09 35 51.64  .31559 1.2182 123.2 21.8  40d  94
2025 07 09 09  23 05 49.463   -09 37 29.62  .31461 1.2176 123.2 21.8  40d  94
2025 07 09 10  23 05 57.952   -09 39 08.24  .31363 1.2170 123.2 21.7  41d  94
2025 07 09 11  23 06 06.488   -09 40 47.51  .31264 1.2163 123.2 21.7  41d  94
2025 07 09 12  23 06 15.073   -09 42 27.43  .31166 1.2157 123.2 21.7  42d  94
2025 07 09 13  23 06 23.706   -09 44 08.00  .31068 1.2150 123.3 21.7  42d  94
2025 07 09 14  23 06 32.389   -09 45 49.24  .30969 1.2144 123.3 21.7  43d  94
2025 07 09 15  23 06 41.121   -09 47 31.15  .30871 1.2138 123.3 21.7  43d  94
2025 07 09 16  23 06 49.903   -09 49 13.74  .30773 1.2131 123.3 21.7  43d  95
2025 07 09 17  23 06 58.735   -09 50 57.00  .30675 1.2125 123.3 21.7  44d  95
2025 07 09 18  23 07 07.619   -09 52 40.96  .30577 1.2118 123.3 21.7  44d  95
2025 07 09 19  23 07 16.554   -09 54 25.61  .30479 1.2112 123.3 21.7  44d  95
2025 07 09 20  23 07 25.541   -09 56 10.96  .30380 1.2105 123.4 21.7  44d  95
2025 07 09 21  23 07 34.581   -09 57 57.01  .30282 1.2099 123.4 21.7  44d  95
2025 07 09 22  23 07 43.674   -09 59 43.78  .30184 1.2092 123.4 21.7  44d  95